Location: Aulus
(42.7909°N, 1.3399°E)
Time: 20:52:01
(UTC+00:00)

Cosmos 1536 - Pass Details

Date: 19 May 2025
Orbit: 494 x 518 km, 82.5° (Epoch: 21 June)

Event Time Altitude Azimuth Distance (km) Brightness Sun altitude
Rises 21:32:41 0° 0° (N) 2,636 7.2 -19.6°
Reaches altitude 10° 21:34:58 10° 10° (N) 1,740 6.0 -19.8°
Enters shadow 21:38:26 35° 75° (ENE) 844 3.6 -20.2°
